Tracking 25734 objects as of 26-May-2022
HD Live streaming from Space Station
objects crossing your sky now

ISIS 2

Track ISIS 2 now!
10-day predictions
ISIS 2 is classified as:


NORAD ID: 5104
Int'l Code: 1971-024A
Perigee: 1,364.2 km
Apogee: 1,431.5 km
Inclination: 88.2 °
Period: 113.6 minutes
Semi major axis: 7768 km
RCS: 1.9568 m2 (large)
Launch date: April 1, 1971
Source: Canada (CA)
Launch site: AIR FORCE WESTERN TEST RANGE (AFWTR)
aabbcc
Your satellite tracking list
Your tracking list is empty




NASA's NSSDC Master Catalog

Two Line Element Set (TLE):
1 05104U 71024A   22145.71828576  .00000020  00000-0  45668-4 0  9997
2 05104  88.1798 193.0246 0043332 195.9624 288.7491 12.67849166366766
Source of the keplerian elements: AFSPC